Home   Weather   Ho Chi Minh   Past weeks

Flag for Vietnam Past Weather in Ho Chi Minh, Vietnam — Yesterday and Last 2 Weeks

Now
79 °F

Passing clouds.


Feels Like: 82 °F
Forecast: 77 / 92 °F
Wind: 7 mph from Southeast

Location: Ho Chi Minh

Current Time: Feb 22, 2017 at 1:58:44 am

Latest Report: Feb 22, 2017 at 1:30 am


Visibility: N/A

Pressure: 29.86 "Hg

Humidity: 89%

Dew Point: 75 °F

Location of Ho Chi MinhLocation

Past Weather in Ho Chi Minh — Graph

°F

Ho Chi Minh Temperature Yesterday

Maximum temperature yesterday: 91 °F (at 12:00 pm)
Minimum temperature yesterday: 77 °F (at 3:00 am)
Average temperature yesterday: 83 °F

High & Low Weather Summary for the Past Weeks

 TemperatureHumidityPressure
High93 °F (Feb 9, 3:00 pm)100% (Feb 10, 6:00 am)30.07 "Hg (Feb 10, 6:00 am)
Low70 °F (Feb 12, 5:30 am)28% (Feb 12, 2:30 pm)29.74 "Hg (Feb 7, 3:00 pm)
Average81 °F66%29.90 "Hg
* Reported Feb 7 12:00 am — Feb 22 12:30 am, Ho Chi Minh, Weather by CustomWeather, © 2017

Note: Actual official high and low records may vary slightly from our data, if they occured in-between our weather recording intervals... More about our weather records

Advertising

Ho Chi Minh Weather History for the Previous 24 Hours

Scroll right to see more
 ConditionsComfort  
Time TempWeatherWind HumidityBarometerVisibility
12:30 am
Wed, Feb 22
79 °FPassing clouds.7 mph89%29.86 "HgN/A
12:00 am81 °FPassing clouds.8 mph84%29.86 "HgN/A
11:30 pm
Tue, Feb 21
81 °FPassing clouds.8 mph84%29.86 "HgN/A
11:00 pm81 °FPassing clouds.7 mph79%29.89 "HgN/A
10:00 pm81 °FPassing clouds.10 mph79%29.89 "HgN/A
9:30 pm82 °FPassing clouds.6 mph74%29.89 "HgN/A
9:00 pm82 °FPassing clouds.8 mph74%29.89 "HgN/A
8:30 pm82 °FPassing clouds.7 mph74%29.86 "HgN/A
8:00 pm82 °FPassing clouds.7 mph74%29.86 "HgN/A
7:30 pm82 °FPassing clouds.8 mph74%29.83 "HgN/A
7:00 pm82 °FPassing clouds.10 mph74%29.83 "HgN/A
6:30 pm84 °FPassing clouds.9 mph70%29.83 "HgN/A
6:00 pm84 °FScattered clouds.9 mph70%29.80 "HgN/A
5:30 pm86 °FScattered clouds.10 mph62%29.80 "HgN/A
5:00 pm86 °FScattered clouds.12 mph62%29.80 "HgN/A
4:30 pm88 °FBroken clouds.8 mph62%29.80 "HgN/A
4:00 pm86 °FBroken clouds.8 mph66%29.80 "HgN/A
3:30 pm86 °FSprinkles. Broken clouds.7 mph70%29.80 "HgN/A
3:00 pm88 °FScattered clouds.7 mph62%29.80 "HgN/A
2:30 pm88 °FScattered clouds.9 mph62%29.80 "HgN/A
2:00 pm91 °FScattered clouds.5 mph56%29.80 "HgN/A
1:30 pm91 °FScattered clouds.10 mph56%29.80 "HgN/A
1:00 pm88 °FScattered clouds.7 mph62%29.83 "HgN/A
12:30 pm91 °FScattered clouds.8 mph52%29.86 "HgN/A
12:00 pm91 °FScattered clouds.8 mph56%29.86 "HgN/A
11:30 am90 °FScattered clouds.7 mph59%29.89 "HgN/A
11:00 am88 °FScattered clouds.9 mph62%29.89 "HgN/A
10:30 am90 °FScattered clouds.8 mph59%29.92 "HgN/A
10:00 am88 °FPassing clouds.9 mph59%29.92 "HgN/A
9:30 am86 °FPassing clouds.8 mph66%29.92 "HgN/A
9:00 am86 °FSunny.8 mph66%29.92 "Hg10 mi
8:30 am84 °FPassing clouds.8 mph70%29.89 "HgN/A
8:00 am82 °FPassing clouds.7 mph74%29.89 "HgN/A
7:30 am81 °FScattered clouds.1 mph84%29.89 "HgN/A
7:00 am79 °FScattered clouds.2 mph89%29.89 "HgN/A
6:30 am79 °FSunny.3 mph84%29.86 "Hg10 mi
6:00 am79 °FPassing clouds.6 mph84%29.86 "HgN/A
5:30 am77 °FPassing clouds.5 mph89%29.83 "HgN/A
5:00 am77 °FPassing clouds.3 mph89%29.83 "HgN/A
4:30 am79 °FPassing clouds.5 mph84%29.80 "HgN/A
4:00 am79 °FPassing clouds.6 mph84%29.80 "HgN/A
3:30 am79 °FPassing clouds.8 mph84%29.83 "HgN/A
3:00 am77 °FPassing clouds.8 mph89%29.83 "HgN/A
2:30 am79 °FPassing clouds.10 mph84%29.83 "HgN/A
2:00 am79 °FPassing clouds.10 mph84%29.83 "HgN/A
1:30 am79 °FPassing clouds.10 mph84%29.83 "HgN/A
1:00 am79 °FPassing clouds.9 mph84%29.83 "HgN/A
Weather by CustomWeather, © 2017

See weather overviewHow to use our weather pages